Location: Friaudour
(46.0460°N, 1.2873°E)
Time: 10:55:58
(UTC+00:00)

Spot 4 Rocket - Pass Details

Date: 14 July 2020
Orbit: 777 x 781 km, 98.7° (Epoch: 05 August)

Event Time Altitude Azimuth Distance (km) Brightness Sun altitude
Rises 03:03:03 0° 15° (NNE) 3,273 8.5 -10.7°
Reaches altitude 10° 03:05:23 10° 16° (NNE) 2,341 7.6 -10.5°
Maximum altitude 03:10:34 81° 104° (ESE) 795 4.1 -9.9°
Drops below altitude 10° 03:15:42 10° 192° (SSW) 2,327 6.0 -9.2°
Enters shadow 03:16:29 - 192° (SSW) 2,636 6.3 -9.1°
